Location: Rounton
(54.4000°N, 1.3500°W)
Time: 08:00:23
(UTC+00:00)

BlueWalker 3 - Visible Passes

Search period start: 06 December 2022 00:00
Search period end: 16 December 2022 00:00
Orbit: 501 x 518 km, 53.2° (Epoch: 05 December)

Date Brightness Start Highest point End Pass type
(mag) Time Alt. Az. Time Alt. Az. Time Alt. Az.
06 Dec 2.1 16:22:42 10° W 16:26:38 76° S 16:30:32 10° E visible
06 Dec 2.5 18:01:20 10° W 18:05:10 52° SSW 18:06:30 34° SE visible
06 Dec 5.0 19:40:29 10° W 19:41:21 14° WSW 19:41:21 14° WSW visible
07 Dec 2.6 17:42:56 10° W 17:46:45 51° SSW 17:49:07 21° SE visible
07 Dec 4.6 19:22:08 10° W 19:23:57 17° WSW 19:23:57 17° WSW visible
08 Dec 2.8 17:24:32 10° W 17:28:20 49° SSW 17:31:51 12° SE visible
08 Dec 4.4 19:03:47 10° W 19:06:22 17° SW 19:06:42 17° SW visible
09 Dec 2.9 17:06:07 10° W 17:09:54 48° SSW 17:13:40 10° SE visible
09 Dec 4.5 18:45:26 10° W 18:47:55 16° SW 18:49:37 13° S visible
10 Dec 3.0 16:47:42 10° W 16:51:29 47° SSW 16:55:14 10° SE visible
10 Dec 4.8 18:27:05 10° W 18:29:28 16° SW 18:31:51 10° S visible
11 Dec 3.1 16:29:17 10° W 16:33:03 45° SSW 16:36:47 10° SE visible
11 Dec 4.8 18:08:44 10° WSW 18:11:01 15° SW 18:13:16 10° S visible
12 Dec 4.9 17:50:24 10° WSW 17:52:33 14° SW 17:54:41 10° S visible
13 Dec 5.1 17:32:05 10° WSW 17:34:05 14° SW 17:36:04 10° SSW visible
14 Dec 5.2 17:13:46 10° WSW 17:15:36 13° SW 17:17:26 10° SSW visible
15 Dec 5.3 16:55:28 10° WSW 16:57:08 12° SW 16:58:47 10° SSW visible
